Regional Weather Roundup
Issued by NWS Newport/Morehead, NC

Current Version | Previous Version | Text Only | Print | Product List | Glossary On
Versions: 1 2 3 4 5 6 7 8 9 10 11 12 13 14 15 16 17 18 19 20 21 22 23 24 25 26 27 28 29 30 31 32 33 34 35 36 37 38 39 40 41 42 43 44 45 46 47 48 49 50
000
ASUS42 KMHX 221513
RWRMHX
WEATHER ROUNDUP FOR EASTERN NORTH CAROLINA
NATIONAL WEATHER SERVICE NEWPORT/MOREHEAD CITY NC
1100 AM EDT SUN OCT 22 2017

NOTE: "FAIR" INDICATES FEW OR NO CLOUDS BELOW 12,000 FEET
WITH NO SIGNIFICANT WEATHER AND/OR OBSTRUCTIONS TO VISIBILITY

NCZ015>017-031-032-045>047-102-103-221600-
NORTH COAST

CITY           SKY/WX    TMP DP  RH WIND       PRES   REMARKS
EDENTON        SUNNY     72  63  72 CALM      30.38F
ELIZABETH CITY SUNNY     73  64  73 NE5       30.38F
KITTY HAWK     MOSUNNY   72  64  73 CALM      30.37F
MANTEO         MOSUNNY  N/A N/A N/A E8        30.38F

$$

NCZ045>047-081-094-103-104-221600-
CENTRAL COAST

CITY           SKY/WX    TMP DP  RH WIND       PRES   REMARKS
FRISCO         MOSUNNY   78  61  55 VRB7      30.36F

$$

NCZ095-097-098-100-101-221600-
SOUTHERN COAST

CITY           SKY/WX    TMP DP  RH WIND       PRES   REMARKS
BEAUFORT       MOSUNNY   76  66  71 NE7       30.35F
CEDAR ISLAND   NOT AVBL
JACKSONVILLE   CLOUDY    73  61  65 NE5       30.35F
PINEY ISLAND     N/A    N/A N/A N/A NE8       30.36S
WILMINGTON     MOSUNNY   75  58  55 NE9       30.34F


$$

NCZ011>013-027>030-043-044-078>080-089-090>093-098-221600-
COASTAL PLAIN

CITY           SKY/WX    TMP DP  RH WIND       PRES   REMARKS
AHOSKIE        MOSUNNY   67  60  78 SE5       30.38F
CLINTON        SUNNY     73  59  62 E5        30.36F
ELIZABETHTOWN  NOT AVBL
GOLDSBORO      SUNNY     72  58  60 E6        30.35F HAZE
GREENVILLE     SUNNY     68  61  77 E5        30.37F
HAVELOCK       MOSUNNY   74  65  73 E7        30.37S
KENANSVILLE    SUNNY     72  57  60 SE3       30.36F
KINSTON        SUNNY     73  59  60 E8        30.37F
NEW BERN       MOSUNNY   74  61  63 NE5       30.37F
RICHLANDS      SUNNY     73  57  57 E7        30.36F
ROCKY MOUNT    SUNNY     69  59  70 E5        30.38S
WASHINGTON     MOSUNNY   69  61  76 E5        30.38F
WHITEVILLE     SUNNY     72  58  61 NE9       30.34S

$$

AMZ130-135-150-152-154-156-158-170-250-252-270-ANZ085-086-088-633-658-670-221600-
MARINE OBSERVATIONS

STATION/POSITION TIME  TEMP    WIND        PRES    WAVE   SWELL
                       AIR SEA DIR/SP/G            HT/PER HT/PER
                 (UTC) (F)     (DEG/KT/KT) (MB)    (FT/S) (FT/S)
CHESAPEAKE LIGHT NOT AVBL
64 E VA BEACH    1450   69 69   70/  8/  8 1029.5    3/ 9   3/ 9
DUCK             1448   71 70   70/ 10/ 11 1028.3
2 E DUCK         1500      70                N/A     2/ 9
OREGON INLET     1442   72 70   50/  6/  9 1028.3
13E OREGON INLT  1448      73                N/A     2/ 8   2/ 8
HATTERAS CG      1448   74 71   40/  6/  8 1028.1
DIAMOND BUOY     1450   76 81   60/  8/ 12 1027.7    3/ 8   2/ 8
CAPE LOOKOUT     1500   74      30/ 12/ 14 1027.2
BEAUFORT LAB     1448   74 72   40/  5/ 11 1027.8
30 SE NEW RVR IN 1408   74      60/ 12/ 16 1027.3
30 SE NEW RVR IN NOT AVBL
27 SE WRIGHTSVLE 1408   77 75  140/  6/ 10 1027.4
5 SE WRIGHTSVLE  1408   73 74   70/ 12/ 19 1027.3
225 S CAPE HAT   1450   77 80   90/ 12/ 16 1026.2    4/ 8   3/ 8
41 SE CHARLESTON 1450   78 79   90/ 17/ 21 1024.5    5/ 7   3/ 9

$$




USA.gov is the U.S. government's official web portal to all federal, state and local government web resources and services.